CZ-3B DEB, 40848

Orbit data source: Space-Track

CZ-3B DEB, 40848 is space debris in HEO originally from a launch on Mon, 19 Dec 2011 UTC launched from the Xichang Space Center, China (XSC). Debris objects in space refer to the collection of defunct objects orbiting the Earth. Examples of debris include non-operational satellites, rocket bodies, and fragments generated from explosions, collisions, or faulty payload assembly.

Loading next visibility...
Identifier
40848, 2011-077AD
Orbit
HEO
Country
Flag of CNCN / PRC
Related business
Manufacturer
CALT
Mission
Spacecraft
Bus & Motor
Unknown
Mass
Unknown
Launch date (UTC)
2011-12-19 (15 years ago)
Launch vehicle
Unknown
Launch site
Xichang Space Center, China (XSC)
Object type
Payload
Rocket body
Debris
Shape & HBR
Unknown shape, 0.4 m
Radar Cross Section
Medium (>0.1 m² and <1 m²)

Expand to show TLE details & history
Last TLE update: 3 days ago

TLE from 3 days ago
0 CZ-3B DEB
1 40848U 11077AD  26170.04624130 -.00000431  00000-0 -13830-1 0  9992
2 40848  27.0019   1.9503 7382842  17.2984 358.3274  1.91015254 79127
Epoch: 2026-06-19T01:06Z
TLE epoch observation values (Epoch: 2026-06-19T01:06:35.248Z)
Latitude
0.00212°
Longitude
78.02343°
Altitude
970.427 km
Speed
9.693 km/s
True Right ascension
00h 07m 48s
True Declination
0° 00' 08"
Sunlit
Object was in daylight at epoch
Visualization orbit readout
Latitude
Unknown
Longitude
Unknown
Altitude
Unknown
Speed
Unknown
Apparent Right ascension
Unknown
Apparent Declination
Unknown
Sunlit
N/A
Visualization observer readout
Local Sidereal Time
21:39:32
Azimuth
Unknown
Elevation
Unknown
Doppler factor
Unknown
Orbital elements
Apogee altitude
41,323.658 km
Perigee altitude
803.838 km
Semi-major axis
27,441.885 km
Eccentricity
0.73828
Inclination
27.0019°
RAAN
1.9503°
Arg. of periapsis
17.2984°
True anomaly
343.71777°
Mean anomaly
358.3274°
Eccentric anomaly
353.64582°
Mean motion
0.47744 °/min
Orbital period
754.02 mins
BSTAR
-0.01383
Loading maneuver chart data...
Computing Atmospheric mass density...
Loading historical data...
Loading historical data...
Loading historical data...
Loading historical data...
Loading historical data...
Loading historical data...
Loading historical data...

Documentation

Showing up to 5 results
|